Location: Devore Heights
(34.2372°N, 117.4156°W)
Time: 07:08:24
(UTC+00:00)

ARIANE 6 FM1 Upper Stage - Pass Details

Date: 21 August 2024
Orbit: 567 x 594 km, 62.0° (Epoch: 06 September)

Event Time Altitude Azimuth Distance (km) Brightness Sun altitude
Exits shadow 11:18:22 18° 151° (SSE) 1,441 4.7 -22.9°
Maximum altitude 11:20:14 24° 115° (ESE) 1,211 4.6 -22.6°
Drops below altitude 10° 11:23:43 10° 60° (ENE) 1,907 6.5 -22.0°
Sets 11:26:17 0° 47° (NE) 2,816 7.7 -21.5°
